User: anonymous   Login
Location: Unspecified
(0.0000°N, 0.0000°E)
Time: 15:02:09
(UTC+01:00)
Language:

Palapa 6 Rocket - Orbit

View from above orbital plane
View from above orbital plane
View from above satellite
View from above satellite

Ground track
Ground track

The orbit data is extracted from the following two-line orbital elements,

1 20571U 90034B   17081.91741084 +.00000525 +00000-0 +26626-4 0  9990
2 20571 022.7496 337.1494 0508664 230.2885 125.1655 14.11887975380327
Epoch (UTC): 22 March 2017 22:01:04
Eccentricity: 0.0508664
inclination: 22.7496°
perigee height: 485 km
apogee height: 1221 km
right ascension of ascending node: 337.1494°
argument of perigee: 230.2885°
revolutions per day: 14.11887975
mean anomaly at epoch: 125.1655°
orbit number at epoch: 38032

The dashed part of the orbit path shows where the satellite is in the earth's shadow,  

DLR